Wind_Speed
11 10 8 7 10 9 6 2 1 3 2 1 3 2 4 3 3 6 7 7 3 3 2 4 4 6 8 10 12 11 8 1 3 3 3 3 13 24 24 26 33 29 27 25 23 22 19 18 18 19 19 18 18 17 16 14 13 12 13 14 15 18 20 22 22 22 23 23 22 19 18 18 18 18 19 19 19 18 18 18 17 16 16 15 15 15 14 14 13 12 12 12 13 15 16 16 13
11 10 8 8 8 4 2 2 1 2 2 3 3 3 3 1 4 9 9 3 4 2 6 10 11 13 14 14 12 11 11 6 5 5 4 14 20 20 26 32 32 30 28 24 23 22 21 19 18 19 18 19 18 18 16 14 12 11 13 14 15 18 20 22 22 23 23 23 21 19 18 17 18 18 19 19 18 18 18 17 16 16 15 15 14 14 12 11 10 10 11 12 13 14 14 14 12
11 10 8 7 5 2 1 2 2 1 2 4 4 4 2 2 5 10 7 5 10 8 10 11 9 7 9 9 7 8 6 5 10 8 7 17 17 15 24 29 29 29 27 24 24 22 22 20 18 19 18 19 19 18 16 14 12 11 13 14 15 17 20 22 22 22 22 22 20 18 17 17 18 18 19 18 18 17 17 17 16 15 14 13 13 12 11 10 8 8 10 11 11 12 13 13 11
10 9 7 5 3 2 3 2 2 3 3 4 4 5 3 4 8 10 8 5 9 8 8 7 5 3 6 12 7 8 8 5 9 10 7 12 17 21 25 27 28 27 25 24 23 23 23 20 18 19 19 19 18 17 16 14 12 11 12 13 14 17 20 21 20 19 19 19 19 18 17 16 17 18 18 18 17 17 16 16 15 13 12 12 11 11 10 10 9 8 8 9 10 10 12 12 10
8 6 4 2 2 1 2 1 2 4 5 4 3 4 4 6 7 9 8 4 7 7 8 5 4 3 7 9 3 5 8 7 8 11 10 13 24 29 27 27 28 27 25 23 23 23 22 20 19 19 20 19 18 17 15 13 11 11 12 13 15 17 19 21 18 16 17 17 17 17 16 16 16 17 17 16 16 16 15 14 13 11 10 10 10 10 10 9 8 6 6 7 8 9 12 13 11
6 5 1 1 1 1 2 1 2 4 6 5 4 3 2 6 6 8 6 4 4 5 8 6 7 7 6 4 4 4 8 10 9 11 17 21 27 29 28 28 27 26 25 23 24 23 22 20 19 19 20 19 19 17 15 13 11 10 11 13 15 17 18 19 18 16 16 16 16 16 15 15 14 15 15 15 15 14 14 12 11 9 9 8 9 9 9 8 7 6 7 7 8 9 12 14 13
5 4 1 1 1 1 2 3 4 5 6 6 6 4 5 10 8 8 5 5 5 3 7 8 11 11 5 3 4 7 11 13 12 15 24 29 30 29 28 28 27 26 24 24 24 22 21 20 19 20 20 19 18 17 15 12 11 10 10 13 15 16 16 16 16 15 15 15 15 15 15 15 14 14 14 14 13 13 12 11 9 8 8 8 8 9 8 7 6 7 8 9 11 13 15 14 13
3 2 1 3 1 1 2 3 4 5 5 6 6 7 9 12 9 8 6 3 4 3 8 8 11 12 5 5 4 7 14 16 19 24 30 32 31 29 28 27 27 25 24 24 24 22 20 20 20 20 19 19 18 17 14 12 11 9 10 13 15 16 15 14 15 15 15 15 15 14 14 14 12 12 13 12 12 11 11 10 9 8 7 7 8 8 7 7 7 8 9 12 16 17 16 15 13
2 1 1 2 1 1 2 4 5 6 6 6 6 9 10 12 10 8 9 1 6 5 6 6 10 13 6 9 8 6 14 21 28 29 30 32 31 29 28 28 27 26 25 24 23 21 20 20 20 19 19 19 18 16 13 12 10 9 10 12 14 16 15 14 16 16 16 15 14 14 13 13 11 11 12 11 10 10 9 8 8 7 7 6 7 7 7 7 9 10 11 16 19 19 17 15 13
2 1 1 1 2 1 4 4 5 4 7 7 7 11 11 13 10 10 10 3 9 6 4 4 12 14 11 11 7 5 14 26 30 26 28 32 31 30 29 28 28 28 27 26 24 22 21 20 20 20 19 19 17 15 13 11 10 10 11 12 13 14 14 16 17 16 16 15 14 14 13 12 11 9 10 10 9 9 7 6 6 6 6 6 6 6 7 8 9 11 13 18 20 19 17 14 12
2 2 2 1 1 3 4 4 6 5 8 7 9 12 11 13 11 12 8 7 11 10 8 8 14 14 13 8 4 8 19 25 25 27 29 31 30 30 29 28 27 27 26 26 25 23 22 21 20 19 18 18 16 14 13 11 10 11 12 13 13 14 14 16 16 15 15 14 14 13 13 12 11 9 9 8 8 7 6 5 5 5 5 5 6 6 7 9 9 10 14 19 20 19 16 14 12
2 3 2 2 2 4 4 3 6 7 9 8 11 11 8 13 11 12 8 9 12 13 8 6 11 11 12 5 2 11 18 19 23 29 30 30 30 29 28 28 26 24 24 25 26 24 22 22 20 18 17 16 15 13 12 11 11 12 14 13 13 14 14 15 14 14 14 14 14 13 13 13 11 10 8 7 6 5 4 5 6 5 5 5 6 5 6 8 8 9 14 18 19 17 15 13 10
2 2 3 2 3 4 3 3 6 6 7 7 10 9 7 11 10 12 8 10 12 11 5 9 14 10 9 5 4 9 11 17 25 29 30 31 29 28 27 26 24 22 23 25 26 24 22 22 20 18 16 15 15 13 12 12 13 14 14 13 13 13 13 13 13 13 13 13 13 13 13 12 11 9 8 6 5 3 4 6 7 5 5 5 5 5 6 7 8 8 12 17 17 16 14 12 10
3 2 4 1 2 2 3 3 5 4 7 9 9 9 6 7 8 9 8 10 5 8 7 11 16 13 9 7 6 5 9 20 27 28 29 30 28 27 26 24 22 22 24 25 25 23 22 21 20 18 16 15 14 13 12 13 14 15 14 13 12 12 13 13 13 13 13 13 13 12 12 11 10 8 6 5 4 3 4 6 6 6 5 5 4 5 6 7 7 7 11 16 16 15 13 11 10
5 1 3 2 3 3 4 3 4 3 7 10 7 6 2 0 2 4 8 11 5 6 10 8 8 10 11 11 8 8 14 25 28 30 31 30 28 26 24 22 22 23 24 24 23 22 21 19 18 17 16 15 15 14 13 12 14 15 14 13 12 12 12 12 12 13 13 13 13 12 10 8 8 7 6 5 3 2 3 6 6 6 5 5 4 4 5 6 6 7 10 15 16 14 12 11 10
4 2 1 2 3 4 4 3 3 4 6 8 7 5 1 5 5 3 3 11 10 6 6 2 3 6 11 11 14 18 23 29 30 33 32 29 27 24 22 21 21 22 22 22 22 20 19 18 17 16 15 15 15 14 13 12 13 14 14 12 12 12 12 12 12 12 11 11 11 11 9 7 7 6 6 5 5 4 4 6 6 6 6 5 4 4 5 5 6 7 9 13 15 14 12 11 10
1 2 3 3 4 5 4 3 3 4 7 7 7 6 3 5 7 5 5 14 15 8 6 3 3 9 11 11 22 29 30 32 33 33 30 26 24 22 21 21 21 21 21 21 19 18 17 17 16 15 14 14 14 13 13 12 12 13 13 12 11 11 12 12 11 11 10 10 10 10 9 8 8 7 7 7 7 7 7 7 7 7 6 5 4 4 5 5 6 7 9 12 15 14 12 10 9
2 3 4 5 6 5 3 3 4 4 7 8 8 6 3 7 7 4 8 13 15 14 10 10 12 13 16 20 29 32 32 32 32 30 24 21 20 19 19 19 21 21 21 20 18 16 16 16 16 15 14 14 14 13 14 14 12 12 13 13 12 12 12 12 11 11 9 9 9 8 9 9 8 7 7 8 9 9 10 10 9 8 7 6 4 3 4 4 6 7 9 11 15 15 12 10 9
4 3 4 6 6 3 2 3 6 5 7 11 10 5 1 5 6 3 7 10 15 16 10 12 17 16 18 21 26 27 29 29 28 27 22 19 19 18 18 18 20 20 20 20 19 16 15 16 16 15 15 15 14 14 15 15 13 13 14 14 13 13 13 13 12 10 9 9 9 9 9 9 9 9 8 7 8 10 11 11 11 9 8 7 6 4 4 4 5 7 9 12 15 16 13 11 10
4 4 4 7 5 4 4 4 7 7 9 12 11 5 3 3 3 4 10 12 14 16 12 13 16 16 16 15 19 23 24 24 25 25 21 19 18 18 19 19 19 19 20 21 20 17 15 16 16 15 15 15 15 15 15 15 14 13 14 14 14 14 14 13 11 10 10 10 10 10 10 9 9 9 10 8 7 9 11 13 13 11 10 9 8 6 5 4 5 7 10 15 17 16 14 12 10
3 4 6 6 3 6 5 4 7 8 10 10 9 5 7 6 3 9 14 12 8 11 15 19 20 19 18 15 16 19 20 20 21 21 19 18 17 17 18 19 20 20 21 22 21 18 16 16 16 15 15 15 14 15 16 15 14 14 14 14 14 14 14 14 13 12 13 12 11 11 10 9 7 7 9 9 8 8 9 11 12 13 12 11 10 9 7 6 6 7 11 16 18 16 15 12 10
3 4 7 6 5 7 5 4 6 8 10 9 6 5 4 5 4 9 14 12 7 9 15 21 23 21 21 18 16 16 16 16 17 18 18 17 16 16 18 19 20 21 23 23 22 20 18 16 16 16 15 14 13 14 16 15 14 14 15 14 14 14 14 15 15 14 13 13 12 11 10 10 9 9 10 10 9 9 7 7 8 11 14 14 12 11 9 8 7 8 10 15 17 16 15 11 7
4 6 6 7 8 8 6 5 7 8 6 5 5 4 2 4 6 2 8 11 8 8 11 17 19 20 22 19 16 15 14 13 14 17 19 19 18 18 19 20 21 23 23 23 22 21 19 18 17 16 15 14 14 15 16 15 13 14 15 14 15 15 15 15 16 14 13 13 13 12 12 11 11 11 12 12 11 11 10 8 6 8 12 15 15 13 11 10 9 10 10 13 16 15 14 10 8
6 8 7 7 8 8 8 8 8 9 6 4 4 4 4 7 5 2 6 9 11 13 11 14 16 18 20 17 15 14 13 13 15 18 19 20 20 21 21 21 22 23 22 22 21 20 19 20 20 18 16 15 15 17 17 15 13 14 14 14 15 15 15 15 15 14 14 13 13 13 13 12 11 12 14 14 13 12 12 10 8 7 10 15 16 15 13 12 11 11 12 13 14 14 14 12 11
7 9 10 7 6 7 8 7 7 10 9 3 4 6 4 6 7 6 8 12 14 16 14 14 15 15 15 14 15 13 12 12 14 17 17 17 20 21 20 20 21 21 21 21 21 20 21 22 22 19 18 17 17 19 18 15 13 13 14 14 14 15 15 14 14 14 15 14 14 14 14 14 13 13 15 16 16 14 13 11 9 7 10 14 17 17 15 14 13 12 13 13 14 14 15 15 14
7 9 10 9 8 8 7 6 6 9 7 3 6 6 4 7 8 8 8 14 15 16 16 14 14 15 12 11 12 12 11 11 13 15 16 17 19 18 17 19 20 20 21 21 21 21 21 22 21 20 19 18 18 19 18 16 14 12 13 14 13 14 14 13 14 14 15 16 16 15 15 15 15 14 15 16 17 16 14 13 10 8 10 13 16 18 17 15 14 14 14 14 14 15 15 16 16
6 7 9 10 10 9 5 5 5 5 5 2 3 6 4 6 6 6 5 13 17 16 16 14 13 12 11 10 10 10 11 12 15 17 16 16 16 16 16 18 19 19 20 22 21 20 20 21 20 20 19 18 18 18 17 16 15 13 12 13 14 13 13 14 14 15 16 17 17 16 16 16 15 15 15 16 18 18 16 15 13 11 11 13 15 18 18 16 15 15 15 14 13 14 15 16 17
6 6 7 8 9 8 5 5 4 2 5 4 5 5 1 4 7 10 9 11 16 18 16 14 14 12 11 11 9 9 10 14 18 18 15 13 12 14 15 17 18 18 20 21 20 19 19 20 20 20 19 18 17 17 16 16 15 14 13 13 14 13 13 14 14 15 16 15 15 15 15 15 16 16 16 16 17 18 18 17 17 15 13 13 15 17 18 18 18 17 17 15 14 15 16 18 19
6 6 6 9 7 8 8 6 4 5 5 5 7 2 5 1 9 15 13 11 14 17 16 14 15 13 12 11 9 8 9 13 14 12 12 11 10 10 12 15 19 20 19 20 19 19 18 19 20 20 19 18 17 16 15 14 14 14 14 14 13 12 12 12 13 14 14 12 12 12 13 14 16 17 17 15 15 16 18 19 19 18 17 16 15 16 17 18 19 20 19 18 17 17 18 20 21
5 4 4 6 4 6 9 5 3 6 5 5 8 1 6 3 8 15 14 14 14 14 15 15 14 13 12 11 9 8 8 11 11 11 13 14 15 16 14 15 20 21 20 20 19 19 19 19 21 20 19 18 16 15 14 13 13 13 13 13 13 12 11 11 11 11 11 10 10 11 12 13 15 17 17 16 15 16 17 18 20 19 18 18 18 18 18 19 19 20 20 20 20 20 20 21 22
4 3 2 3 2 5 8 4 7 5 4 6 8 3 6 4 7 14 13 15 15 14 13 13 13 12 11 11 11 10 9 11 13 14 16 18 19 19 16 16 19 20 20 21 20 19 19 20 20 19 18 17 16 15 14 13 13 12 12 12 12 12 11 9 9 8 8 8 9 10 9 11 13 15 15 16 15 15 16 17 18 19 18 19 20 20 20 21 20 20 20 21 22 22 21 21 21
2 2 4 2 3 5 7 4 8 7 4 5 9 3 5 4 9 14 13 14 15 14 12 12 13 13 12 11 11 10 9 12 14 14 14 14 15 16 14 14 16 17 18 20 20 19 18 18 18 18 17 16 16 15 14 12 12 12 12 11 10 10 10 9 8 7 7 7 8 8 7 8 10 12 14 15 16 15 15 16 15 16 16 18 20 21 21 22 22 21 21 23 23 22 21 20 20
1 2 4 2 3 4 5 5 5 9 4 3 6 5 3 3 9 13 13 15 15 14 12 12 13 13 13 11 9 9 9 9 11 13 13 13 15 18 16 14 16 15 16 19 20 18 17 16 16 15 15 15 15 14 13 12 11 10 10 10 10 10 10 9 7 7 7 7 8 8 8 8 9 11 13 16 16 16 16 16 15 15 16 18 20 21 22 23 23 23 23 24 24 24 22 21 20
3 0 3 3 3 4 3 5 5 7 6 4 6 6 4 3 11 15 14 17 16 14 13 13 13 12 12 11 10 9 9 8 8 12 14 13 14 15 15 15 15 15 16 17 17 16 15 15 15 14 14 13 12 12 11 11 10 9 8 8 9 10 10 9 8 7 7 8 9 9 9 9 10 11 14 16 17 17 17 17 17 16 17 19 21 21 22 23 24 24 24 23 22 22 21 20 21
3 2 3 3 3 4 5 4 4 5 7 7 5 6 7 2 10 14 14 18 18 15 14 13 13 13 13 11 11 10 9 9 8 11 15 15 13 12 13 13 12 13 14 15 14 14 14 13 13 14 13 12 11 11 10 10 10 9 8 7 8 10 10 9 8 8 7 7 8 8 9 11 12 12 13 16 17 18 18 18 19 18 18 19 20 20 21 23 24 24 24 23 22 21 19 17 17
7 6 4 4 4 4 5 5 5 7 7 8 6 7 8 5 9 11 12 15 16 14 13 12 12 12 12 11 9 9 10 8 8 12 17 17 16 15 14 13 13 13 13 13 13 13 13 13 14 13 12 11 10 9 9 9 9 8 8 8 9 10 10 9 9 9 8 8 9 9 11 11 12 13 13 15 17 18 20 20 21 20 19 18 20 22 22 22 23 23 23 24 22 20 18 16 14
6 5 4 6 5 4 6 5 7 7 6 8 8 8 8 6 9 11 10 11 13 13 13 12 11 11 11 11 10 10 10 9 10 15 18 18 18 17 16 15 15 15 13 12 12 12 12 12 13 12 11 9 8 8 7 8 8 8 9 9 9 8 8 8 9 9 9 9 9 10 11 12 12 13 13 15 17 19 21 21 22 23 21 21 23 24 23 22 22 22 22 22 21 20 18 17 16
7 6 4 6 5 6 8 7 7 7 6 7 7 6 6 3 10 13 11 11 13 14 15 14 14 12 10 11 12 10 9 10 12 14 16 17 18 18 17 17 16 15 13 12 10 10 9 8 9 9 9 8 7 7 6 7 7 8 8 8 8 7 7 6 7 7 8 8 9 10 12 12 13 14 14 15 16 18 20 21 22 23 23 23 24 24 24 22 21 21 21 21 20 19 19 18 18
7 6 5 5 4 5 7 5 6 6 6 6 6 7 3 1 9 14 13 12 9 9 13 14 15 14 11 12 12 10 10 10 10 11 13 16 16 17 17 15 15 14 13 12 10 9 8 7 6 5 5 5 6 6 6 6 6 7 8 8 8 8 7 7 7 7 8 9 11 12 13 13 14 14 15 16 17 18 19 20 21 22 23 23 23 24 24 23 22 21 22 22 20 18 18 17 18
7 5 5 5 4 3 3 4 6 7 7 6 7 7 2 5 8 8 7 9 7 7 8 9 11 13 13 12 11 11 11 10 10 10 12 16 16 16 16 15 14 14 13 12 11 10 10 9 7 5 4 2 2 3 3 3 5 6 7 9 9 9 9 8 8 8 9 11 12 13 14 14 14 14 15 16 17 18 18 19 20 22 22 22 23 24 24 24 24 23 22 22 21 19 18 18 19
8 8 7 6 7 5 3 4 4 6 9 4 8 6 4 3 7 6 6 7 9 9 11 11 9 11 13 13 11 10 10 10 11 11 11 14 16 16 16 17 17 15 14 12 12 11 10 9 8 6 5 4 3 1 2 2 4 4 5 7 7 8 8 8 9 10 10 10 11 12 13 14 14 15 16 16 17 17 18 19 20 22 22 22 23 23 24 25 25 24 24 24 23 22 21 20 19
8 10 10 10 9 5 4 4 1 4 8 4 7 6 3 3 4 8 7 8 9 8 12 12 11 12 13 12 11 10 10 10 10 10 11 14 16 17 17 18 18 17 16 15 14 13 12 10 9 8 8 7 6 4 2 2 2 4 5 6 7 8 9 11 12 12 11 10 10 10 10 11 12 14 15 16 17 17 17 18 19 21 22 21 22 23 24 25 23 23 24 26 26 25 24 20 19
8 7 10 12 9 5 4 3 2 4 6 5 6 6 2 3 1 6 9 12 11 9 11 11 10 11 10 9 9 9 10 10 10 10 11 13 16 18 17 17 19 18 17 17 16 15 15 14 12 11 11 10 10 8 5 5 5 5 6 8 10 11 12 14 14 12 11 10 11 11 10 10 11 14 14 14 16 16 17 18 18 20 21 20 20 22 23 24 23 22 23 24 26 26 25 21 21
8 5 8 10 9 7 6 4 3 4 3 1 4 7 5 2 3 5 11 15 14 11 12 11 10 10 9 8 8 9 10 10 10 9 10 11 15 18 17 17 19 17 16 17 17 17 16 15 14 12 11 10 10 9 8 8 9 9 10 11 13 14 15 15 14 13 13 12 11 12 11 11 11 13 13 13 14 15 16 16 17 19 20 19 19 21 22 22 21 21 21 22 24 24 24 24 23
7 4 6 7 7 6 6 5 5 3 1 2 4 7 5 2 3 5 10 15 15 13 14 13 12 12 10 9 9 9 9 10 11 9 9 12 15 19 19 19 19 17 17 17 17 16 15 14 13 12 12 11 10 9 8 9 9 10 11 11 13 14 14 13 13 14 15 14 13 14 13 12 12 12 12 12 12 13 13 14 15 17 19 18 18 19 20 21 21 21 22 21 22 23 24 24 22
4 4 5 3 5 5 5 6 5 3 3 5 8 8 5 1 4 6 8 12 14 11 11 11 11 12 10 10 11 10 8 9 11 10 10 13 17 19 19 20 19 17 16 16 15 15 15 14 14 14 15 13 11 9 8 9 10 11 12 13 14 14 14 14 14 14 16 17 16 15 14 13 14 14 12 12 12 12 12 12 13 15 16 17 17 17 17 19 21 22 22 20 20 22 23 23 22
1 3 5 2 2 2 4 5 4 3 3 6 11 10 9 4 6 7 7 10 15 12 10 12 11 12 11 10 11 10 8 8 9 10 11 15 17 18 20 20 18 16 14 14 15 14 14 14 14 16 15 13 12 11 10 10 11 12 13 14 14 15 15 14 15 16 17 18 16 16 15 14 14 14 13 13 13 13 12 12 12 14 15 16 17 16 15 17 19 20 19 17 17 20 21 22 24
5 4 4 2 1 0 2 3 3 4 6 7 11 11 12 8 7 7 6 9 18 16 13 15 14 12 10 9 10 10 9 9 9 9 9 13 14 15 19 19 17 17 14 13 15 14 13 14 14 14 13 12 11 11 11 11 11 11 12 13 14 14 13 13 14 15 16 17 16 16 16 15 14 14 14 13 12 13 13 13 12 12 14 16 17 16 16 15 16 17 17 16 16 19 20 22 24
9 5 5 5 2 2 4 4 3 5 6 6 11 11 7 6 4 5 9 12 14 14 13 16 17 15 12 11 11 9 9 9 9 8 7 9 10 11 16 18 17 17 14 11 13 14 14 13 11 10 10 9 9 9 11 11 11 12 12 13 13 12 11 12 13 14 14 15 15 15 16 16 16 15 15 14 12 12 13 13 13 13 14 16 17 17 17 17 16 17 17 18 18 20 22 23 25
12 9 7 6 5 5 5 5 4 4 5 4 9 10 3 1 2 1 11 13 8 8 11 14 15 15 14 12 11 9 9 8 8 8 7 8 9 11 15 19 17 15 12 10 11 12 12 11 8 7 8 7 7 7 9 10 11 12 12 13 13 12 10 11 13 14 14 14 14 15 16 17 18 17 16 15 13 13 13 12 12 13 14 15 16 16 17 18 19 18 18 20 21 23 24 25 27
11 8 6 5 5 6 5 5 4 5 3 0 3 5 2 1 1 2 9 10 9 10 11 13 14 13 13 12 11 10 9 8 7 8 8 9 12 13 16 19 17 13 10 9 10 11 12 11 9 9 10 9 9 9 9 11 11 12 12 12 13 13 11 10 11 13 14 14 14 15 16 17 18 18 17 16 15 14 14 13 12 13 14 15 15 16 17 18 18 19 20 21 23 24 24 25 27
7 4 6 5 6 6 3 4 5 5 4 3 2 1 1 1 3 7 12 12 11 12 12 14 14 12 12 11 11 10 9 8 7 7 8 10 13 14 16 17 14 11 10 10 12 13 13 12 12 12 11 10 11 12 13 14 15 15 14 13 14 14 13 12 11 12 13 14 14 14 15 17 18 18 17 17 16 15 15 15 15 14 14 14 14 15 16 17 18 18 20 22 24 25 24 25 26
5 5 6 6 6 6 3 3 2 4 6 0 1 2 2 2 3 6 12 13 11 12 12 12 12 12 12 10 9 9 9 8 8 7 8 10 12 14 16 17 14 10 9 12 15 14 13 12 11 10 9 9 11 12 13 13 14 16 16 16 15 15 15 14 14 14 15 14 13 13 14 16 17 18 18 17 17 17 16 16 17 16 15 15 15 15 15 17 17 18 20 22 25 26 25 24 24
5 7 8 4 4 3 3 2 1 3 5 1 2 4 5 5 2 4 11 13 10 10 11 12 11 11 11 9 9 9 9 9 9 9 9 10 12 14 17 17 14 12 13 16 16 14 13 11 9 8 8 8 10 13 15 15 16 17 18 18 18 17 16 15 15 16 17 17 16 15 15 16 17 18 18 17 18 18 18 18 18 17 17 17 17 16 15 15 16 17 19 21 23 24 24 24 23
6 6 6 6 5 3 1 3 3 3 4 1 2 5 5 3 3 7 13 14 12 11 11 12 12 11 10 10 9 10 9 9 8 8 8 9 12 16 17 14 13 15 19 19 16 14 13 12 14 13 12 12 13 16 19 21 21 21 21 20 19 18 18 17 16 16 17 18 19 18 17 17 17 17 17 17 18 18 20 21 20 19 18 18 19 17 15 14 13 15 17 20 22 23 23 24 23
6 4 5 5 5 4 4 4 3 5 4 3 5 6 4 1 5 10 13 14 16 14 11 12 12 11 10 10 9 9 8 8 7 7 6 8 12 15 14 13 15 19 19 18 16 15 14 16 20 20 18 17 18 19 22 24 23 23 22 21 20 19 18 18 17 17 17 18 18 18 19 19 18 17 17 17 17 17 18 20 21 22 20 19 19 18 16 15 14 15 16 19 21 22 22 23 23
5 4 5 6 3 3 3 2 2 5 5 4 5 4 3 1 5 10 12 12 14 13 12 10 10 10 10 10 9 8 8 7 7 7 6 8 12 14 15 17 19 19 19 19 18 17 18 21 23 23 22 21 21 21 24 25 24 23 23 23 22 21 20 20 19 18 19 19 19 19 19 19 19 20 19 18 18 18 18 19 20 21 21 21 20 18 17 16 16 16 17 18 20 21 20 21 21
6 5 5 6 5 4 3 2 1 4 5 5 5 4 2 1 3 8 11 11 11 12 12 11 9 10 10 10 10 9 8 8 7 5 6 8 13 16 18 19 19 19 19 18 17 18 20 22 24 25 24 23 23 23 25 26 26 25 24 23 23 22 21 21 21 21 21 21 21 20 20 20 21 21 21 21 20 20 20 19 19 20 21 22 22 21 19 18 17 17 16 16 18 20 20 20 21
Wind_Direction
296 295 305 321 329 336 336 66 63 319 94 201 237 256 255 207 249 284 284 262 267 327 343 45 70 102 102 107 113 92 55 58 158 137 183 153 136 153 168 162 153 152 150 149 153 154 154 154 151 148 150 151 152 151 148 144 137 128 121 121 118 117 121 123 122 121 119 116 112 108 107 109 109 109 108 107 105 105 105 103 103 102 101 99 97 95 95 95 97 101 107 110 110 111 107 104 102
295 291 298 323 331 349 311 78 96 308 68 265 254 215 251 17 314 285 273 229 131 115 90 87 84 90 106 118 112 81 50 33 90 106 115 119 124 143 155 154 153 151 148 146 151 151 150 150 149 148 150 152 154 154 152 151 144 133 127 125 123 121 121 123 122 121 120 117 114 112 113 113 113 112 111 109 107 107 106 106 105 103 101 100 98 97 96 96 100 108 112 113 114 116 112 109 107
297 296 305 330 343 41 4 37 109 175 160 235 258 245 265 347 275 274 272 127 125 132 106 99 93 94 109 98 64 75 83 62 92 97 113 127 125 137 147 147 148 146 144 145 149 149 148 149 149 149 151 155 158 158 156 157 149 135 130 127 127 124 122 122 120 120 119 118 115 115 116 114 115 113 112 111 111 110 108 106 103 102 101 99 100 97 94 91 92 101 109 112 115 122 124 122 120
299 306 323 1 17 23 55 59 160 150 189 225 258 256 232 224 243 264 262 162 148 139 114 111 80 7 80 91 75 84 110 115 112 116 130 147 144 145 145 145 145 142 141 145 148 148 148 148 148 149 153 158 161 161 160 158 149 135 130 130 130 127 125 122 118 117 118 118 117 116 116 114 115 114 114 114 114 113 109 107 105 106 106 107 108 103 98 94 89 89 97 103 109 123 135 140 136
304 313 314 53 76 359 99 142 172 156 209 205 236 248 208 218 232 255 256 176 169 142 120 119 91 33 66 91 92 96 119 122 121 124 128 146 145 145 147 148 146 141 140 143 146 146 147 148 148 152 155 160 163 162 161 156 147 133 131 133 132 130 127 122 117 116 117 118 119 118 116 115 115 116 116 116 117 114 110 110 110 110 111 114 111 106 103 101 101 100 95 95 102 118 136 146 146
315 346 333 123 138 227 132 235 222 226 230 182 219 247 245 262 262 266 277 71 105 124 113 106 113 106 69 55 32 80 128 127 126 129 131 140 144 146 149 149 145 139 139 141 143 144 146 150 149 153 157 161 161 160 159 154 147 133 131 136 134 132 129 126 121 118 119 120 122 120 118 117 116 117 117 119 119 114 113 112 109 106 107 106 100 97 99 102 107 102 96 100 109 118 131 142 146
331 6 59 84 310 330 118 223 222 247 244 194 230 262 285 284 289 287 282 77 65 65 94 109 120 103 69 73 43 61 108 127 129 136 139 141 143 144 147 145 140 135 137 140 141 144 148 151 149 153 158 158 158 157 157 152 145 134 131 138 139 135 130 129 125 122 124 126 126 122 122 121 119 119 119 120 119 114 110 103 99 100 102 102 102 101 103 106 100 94 99 111 117 123 132 140 143
349 357 94 96 355 354 138 247 236 231 239 210 239 261 265 269 281 291 271 139 131 131 111 130 114 88 52 73 68 71 96 117 125 133 137 137 141 143 145 140 133 133 138 142 141 145 149 150 151 155 156 155 156 156 155 151 146 135 134 141 144 142 137 133 130 129 133 131 126 124 124 125 122 120 121 121 118 114 104 94 92 94 95 96 101 97 97 93 87 97 110 121 125 130 137 141 139
49 99 21 94 123 298 252 273 253 236 253 250 256 260 263 266 271 273 272 206 135 128 126 163 104 95 95 80 84 83 93 115 123 129 134 137 143 143 143 139 134 136 140 143 144 147 150 151 153 155 157 156 158 159 158 155 149 139 140 145 148 151 147 143 142 139 139 134 129 127 127 129 126 121 124 125 121 114 102 92 91 93 92 91 91 84 78 75 87 106 120 129 133 137 140 140 132
47 156 121 114 130 261 267 259 253 259 265 263 256 253 258 262 261 255 260 140 126 104 98 109 90 109 118 95 90 93 115 124 121 122 135 142 144 140 140 141 139 139 142 147 149 151 150 153 156 157 160 160 163 162 160 158 152 146 146 148 149 154 152 151 150 144 141 138 134 132 132 132 129 128 129 131 129 120 107 96 94 94 90 89 90 80 68 68 88 109 126 136 138 140 141 136 125
26 295 148 146 135 217 247 249 261 280 273 278 264 250 242 247 249 248 246 121 130 127 129 92 91 114 106 96 81 112 127 124 117 120 134 139 137 138 139 142 143 142 145 151 152 152 151 154 158 160 163 164 166 163 160 160 154 150 149 146 143 147 151 154 153 146 144 143 141 138 138 139 138 140 139 141 141 127 115 110 108 102 90 90 89 77 62 65 83 106 131 141 141 142 141 135 123
80 291 103 134 187 208 230 243 266 275 277 282 266 255 226 234 235 229 209 131 140 138 154 118 115 121 97 106 105 117 121 112 117 124 131 133 132 137 140 142 145 145 148 153 152 150 152 155 157 161 164 164 165 163 161 158 152 150 147 143 139 139 145 152 154 151 150 150 150 149 150 150 148 149 150 152 150 134 127 131 128 114 97 95 88 80 64 63 75 102 136 146 144 145 140 134 121
146 229 106 150 206 200 238 246 271 287 290 273 262 267 224 218 208 204 181 131 149 147 159 138 135 121 100 124 119 122 112 110 123 127 129 130 131 137 140 144 146 149 150 152 150 149 152 154 157 160 161 161 162 160 156 150 147 146 143 141 139 137 138 145 153 157 159 158 159 162 164 164 160 156 158 161 158 143 139 140 135 125 110 99 93 91 75 66 73 99 138 151 150 149 141 132 119
174 204 130 212 243 214 241 235 273 288 283 271 272 279 235 200 191 185 136 107 146 155 126 131 131 107 115 136 122 145 118 120 126 126 127 128 133 137 140 144 145 147 148 150 148 148 152 154 158 158 158 157 156 155 148 143 144 144 141 142 143 142 141 141 148 157 164 166 168 170 172 173 170 167 169 174 168 159 151 144 137 136 125 107 104 102 88 74 76 100 137 155 157 153 144 133 122
179 205 135 223 285 278 237 212 259 240 271 276 276 274 237 205 173 142 122 108 85 119 109 130 137 105 149 161 148 165 132 127 127 125 126 127 134 137 139 140 141 144 145 147 147 150 154 155 157 156 156 153 152 152 143 138 144 146 146 150 149 148 148 145 146 152 163 171 175 176 175 175 172 175 183 190 193 200 174 157 151 152 141 123 118 112 106 89 85 106 137 158 163 158 150 138 126
179 172 141 235 250 262 235 208 233 221 270 272 277 293 37 11 33 64 132 119 104 108 100 174 217 126 164 163 143 144 133 129 126 124 124 124 129 130 133 134 135 140 143 147 148 153 155 155 155 153 153 151 151 150 140 137 146 150 153 157 152 153 155 151 148 149 159 168 176 178 179 177 173 181 193 203 206 205 193 180 175 168 159 141 133 127 121 107 101 111 134 159 167 162 155 145 132
196 179 211 237 235 241 223 199 201 224 285 285 303 331 94 60 52 53 58 98 105 90 54 39 48 105 133 132 131 133 130 129 126 123 121 122 126 125 128 130 133 138 143 146 147 153 155 154 152 151 152 151 152 148 140 139 150 156 158 158 153 157 159 155 153 154 160 165 171 175 174 173 174 188 195 198 195 192 194 192 190 183 174 157 144 140 132 123 116 117 133 156 168 167 160 152 137
195 189 206 225 232 227 184 198 241 266 301 301 319 341 139 118 103 99 68 83 93 80 62 70 74 89 109 118 126 129 130 129 126 124 124 129 131 129 131 134 139 142 144 145 149 154 153 155 154 152 152 153 153 149 145 145 154 161 162 161 157 164 164 160 161 161 166 168 172 173 170 171 172 183 192 196 191 186 191 194 198 192 181 173 163 154 146 140 129 126 136 152 165 168 161 151 140
182 182 203 225 225 227 185 242 280 296 294 299 311 318 216 123 125 142 99 102 100 92 83 88 93 98 108 117 124 128 130 129 128 130 135 142 142 138 138 140 145 146 146 150 156 157 152 155 157 154 154 157 157 153 151 152 158 164 166 165 164 172 171 169 168 166 172 175 179 180 181 181 177 175 175 190 196 189 190 193 199 199 191 181 176 175 167 161 145 136 141 150 157 159 155 149 146
197 182 217 240 240 269 271 260 281 288 290 297 297 311 5 37 98 129 120 119 113 116 125 117 116 122 124 127 128 130 130 128 131 135 142 147 146 144 142 144 148 147 152 158 159 156 153 154 155 154 156 159 160 157 156 157 162 166 167 168 172 177 176 175 174 174 182 188 188 186 188 189 189 180 167 174 195 199 195 194 196 200 199 190 183 186 185 183 166 148 150 153 153 154 153 149 148
212 188 220 239 243 271 267 262 281 289 295 290 287 353 7 340 73 131 128 116 117 139 149 142 140 140 138 139 135 134 130 129 133 137 145 147 145 145 145 148 147 146 152 159 158 156 156 154 154 155 156 157 157 157 157 159 162 165 167 170 176 180 181 181 182 185 188 195 195 194 196 199 208 205 188 181 184 194 201 200 198 199 202 198 190 189 190 194 188 164 158 160 159 160 160 155 151
255 234 236 234 231 262 266 263 276 284 297 296 302 10 338 318 70 137 139 132 160 167 158 148 143 144 143 143 139 136 133 134 137 140 145 145 145 148 149 148 143 141 147 154 156 159 160 158 159 158 156 154 153 153 154 157 161 164 166 169 176 182 186 187 188 190 190 196 201 207 212 213 220 229 221 206 194 188 198 209 205 204 205 204 197 194 194 196 200 187 173 171 171 174 175 174 175
245 267 255 241 233 247 265 265 268 274 298 312 300 326 334 51 56 147 143 141 155 141 146 142 137 139 139 138 137 139 140 140 142 146 149 147 150 154 153 149 145 143 143 148 154 160 164 167 167 161 158 155 151 151 153 158 163 167 168 170 178 183 188 192 193 194 197 205 211 218 222 220 225 237 236 226 218 205 201 209 212 209 208 208 204 199 199 198 204 202 191 185 186 192 195 202 216
219 253 258 245 234 235 254 261 273 277 265 256 283 346 37 79 68 35 101 115 117 110 123 126 125 131 132 133 137 141 142 142 145 148 148 148 153 158 157 152 149 148 144 146 153 159 165 168 167 162 161 160 154 154 157 161 170 175 176 178 183 185 191 195 197 199 205 213 219 225 230 229 229 239 239 233 232 223 211 208 206 209 210 213 211 206 204 202 206 210 208 204 206 213 216 223 230
219 241 255 246 233 228 240 250 269 273 257 255 354 4 42 105 103 90 100 109 113 116 121 121 123 128 129 132 136 139 137 135 138 140 138 142 151 156 156 152 149 151 150 152 158 160 161 163 164 163 166 164 158 158 162 169 179 185 186 188 190 192 195 199 205 209 213 219 224 230 235 237 236 238 239 235 234 234 227 217 208 205 205 212 216 214 211 207 208 212 216 220 224 231 236 240 244
222 228 244 241 241 235 233 241 241 254 258 33 358 336 76 110 94 79 107 118 119 120 121 125 127 129 130 130 133 132 127 126 131 132 130 135 146 149 150 150 149 153 157 160 166 164 160 161 163 165 167 165 162 164 169 178 188 193 194 197 201 203 205 210 217 221 223 227 229 233 238 243 242 239 239 237 234 235 237 234 225 215 204 207 214 216 217 216 215 217 220 224 230 239 246 252 261
238 230 241 238 244 248 228 229 228 251 268 129 286 289 127 134 102 86 126 127 124 124 125 130 128 126 127 125 130 126 120 124 128 126 123 130 142 147 146 145 147 154 161 166 171 168 162 164 166 166 169 170 169 171 176 187 198 203 206 208 212 218 222 221 226 231 235 237 237 239 244 247 247 244 241 240 236 233 238 243 241 232 215 206 210 214 218 221 222 226 227 229 234 244 252 262 273
262 261 275 265 257 266 245 236 230 213 269 190 181 280 252 127 121 137 155 140 134 132 130 132 125 122 122 122 124 120 118 123 126 127 126 129 139 145 142 141 148 157 166 173 175 171 167 169 172 171 174 177 179 179 181 194 206 215 221 220 222 229 231 229 232 240 241 243 244 246 249 252 251 249 244 239 234 233 239 246 246 245 233 216 212 215 221 225 226 229 233 237 241 249 256 264 271
252 246 270 276 272 267 247 244 223 173 231 198 143 303 306 46 134 150 151 147 141 131 129 128 122 120 120 120 116 113 113 108 104 99 96 101 118 136 141 146 157 165 172 176 177 175 173 173 176 178 181 183 186 186 188 199 213 222 230 233 237 238 236 237 241 247 248 247 250 250 252 254 251 248 246 241 236 238 243 245 244 249 246 234 225 221 224 229 230 229 231 237 241 246 250 256 261
259 232 207 256 280 270 247 226 187 176 204 167 128 168 275 292 150 154 147 146 140 126 129 128 126 125 121 121 115 109 96 90 89 89 103 127 146 154 156 157 163 169 172 174 175 176 176 177 179 181 184 188 191 191 193 203 214 222 231 239 244 246 246 245 246 251 252 249 251 251 255 255 246 243 246 245 243 244 245 243 243 248 249 244 238 232 228 231 232 230 231 235 240 244 247 252 256
286 283 223 221 197 263 267 218 159 179 225 143 123 187 247 268 170 161 151 146 139 130 135 131 128 125 120 120 114 107 94 103 119 125 134 147 155 159 159 159 164 167 168 169 170 170 174 179 181 181 182 189 194 194 198 208 217 221 229 240 245 248 247 243 242 244 245 245 246 249 257 253 242 240 244 246 247 248 246 244 245 248 250 246 240 237 235 235 237 236 236 238 243 248 251 253 250
287 273 286 271 177 256 286 240 159 169 243 144 132 193 245 243 180 168 156 144 137 135 139 133 127 119 116 114 106 105 102 111 118 117 121 129 143 156 157 157 160 163 165 165 163 165 172 177 179 179 181 188 192 195 202 210 218 222 227 236 238 237 236 239 244 244 249 250 248 251 261 259 246 246 248 247 249 252 252 250 250 251 253 248 241 242 243 242 243 243 244 243 247 255 257 255 249
274 180 246 243 164 237 283 277 195 176 199 162 163 191 234 224 182 173 155 144 138 137 141 132 125 118 116 112 104 110 110 107 100 99 110 127 147 157 157 155 159 166 167 163 161 163 167 171 175 178 181 186 189 193 201 206 211 218 224 229 233 232 234 241 244 245 252 253 253 258 264 269 263 259 257 254 254 255 254 255 257 257 254 250 248 250 251 251 250 248 248 246 248 255 255 253 248
294 200 228 235 170 193 231 284 269 187 177 205 204 199 224 202 175 174 155 145 142 140 144 137 129 123 119 116 113 119 115 110 104 108 121 136 148 153 155 155 160 167 166 162 160 160 161 165 172 176 179 181 185 191 197 202 206 213 221 227 233 236 238 242 244 245 250 252 258 265 270 274 273 272 266 260 258 257 257 255 256 254 251 253 253 253 251 250 250 248 246 246 245 247 248 250 248
216 221 214 243 207 195 204 235 256 187 186 210 200 212 232 147 151 170 158 148 147 145 145 139 133 127 122 121 122 123 115 112 117 116 117 122 131 140 145 149 156 160 158 156 153 153 155 156 161 167 173 177 181 187 193 203 209 213 220 228 237 244 245 246 250 253 256 261 268 276 280 279 277 276 271 263 259 258 259 258 256 253 250 253 253 250 246 244 244 243 243 242 241 241 245 250 248
184 198 195 210 208 225 215 226 236 180 186 214 191 212 219 137 127 157 157 149 143 141 139 133 131 126 124 125 123 121 116 120 129 118 111 114 124 133 134 138 148 151 150 152 152 153 150 147 150 157 165 171 178 186 196 210 217 222 228 233 242 248 247 246 252 260 267 272 280 285 286 287 284 280 275 267 263 262 263 263 263 258 254 253 250 247 247 247 244 240 240 239 238 238 241 244 240
205 200 207 219 207 228 229 239 246 181 174 221 202 211 218 162 145 152 150 146 139 138 136 132 132 128 127 125 121 120 120 128 128 117 113 115 121 128 128 130 138 143 148 155 157 153 149 147 149 155 164 173 185 198 213 227 232 240 245 248 255 255 250 249 253 260 270 279 285 289 289 292 291 286 282 274 268 267 266 266 265 261 257 254 252 251 252 255 250 243 240 238 237 235 236 239 233
235 219 214 236 219 226 228 223 234 192 181 226 197 194 233 192 155 151 143 145 148 149 144 139 136 129 126 124 122 123 121 122 120 116 115 114 116 120 120 124 130 134 142 152 155 149 147 150 153 159 168 176 186 197 213 228 239 250 258 269 278 274 267 268 269 270 276 283 285 286 288 288 287 287 286 282 276 272 269 267 265 262 259 254 252 254 254 254 250 243 239 236 237 235 234 236 228
237 226 203 234 231 232 244 233 227 199 195 226 176 170 243 31 141 144 141 149 152 148 143 140 137 133 131 131 128 126 123 121 122 121 120 118 116 115 115 117 121 124 131 140 142 134 130 134 145 154 163 175 188 202 216 232 241 249 262 275 281 282 284 288 289 289 285 283 282 280 281 279 278 281 284 285 283 280 275 270 267 264 260 256 254 252 251 251 249 245 240 237 237 235 236 235 227
231 218 196 226 233 206 248 260 233 207 209 208 154 147 61 66 121 114 108 129 114 96 107 108 120 129 130 131 127 128 129 127 128 125 120 118 114 109 107 108 110 114 120 125 123 113 107 106 105 111 115 117 159 207 230 245 244 247 261 270 274 279 283 285 290 294 291 288 286 283 282 279 275 277 283 288 289 287 284 278 273 267 262 259 255 251 249 250 249 247 244 240 236 234 237 235 230
231 222 201 215 232 204 198 252 241 215 221 191 112 99 39 82 134 103 68 97 97 94 96 92 104 118 121 123 122 126 129 127 127 125 119 114 108 101 98 98 97 95 97 101 104 102 99 96 91 89 84 65 51 359 294 269 262 277 289 288 291 297 302 313 319 322 320 311 303 299 297 295 290 289 290 291 290 289 289 285 278 273 270 264 257 254 254 251 250 251 249 246 240 236 235 234 230
239 232 207 211 227 208 207 263 267 203 228 204 123 107 19 325 138 129 116 100 97 101 104 107 116 119 119 121 121 122 120 117 117 116 115 111 106 99 91 90 86 78 77 82 88 92 93 95 95 90 82 71 64 52 359 302 310 334 339 341 345 338 342 356 357 352 346 336 327 322 316 310 307 303 300 296 292 290 291 290 283 275 269 264 261 260 259 256 254 254 251 247 246 241 235 231 228
237 219 189 211 223 202 222 260 148 189 227 211 157 132 103 307 279 143 131 117 117 114 108 113 118 118 117 112 114 119 114 111 108 107 109 109 108 101 89 84 84 76 75 81 83 85 86 88 90 88 84 77 72 70 67 63 56 51 45 37 31 24 20 21 20 17 9 358 351 347 338 327 317 309 304 302 299 295 293 291 286 277 267 264 265 263 263 264 258 253 252 250 249 243 233 227 227
231 186 163 202 210 201 220 221 197 221 264 250 146 126 122 182 225 173 135 122 124 125 120 121 117 111 107 102 104 112 115 113 109 106 106 107 104 100 93 88 87 83 82 84 80 79 79 79 80 78 77 72 65 65 64 64 61 59 58 52 44 38 33 29 27 27 23 16 9 2 352 339 323 311 306 306 303 300 299 295 290 285 280 277 273 262 260 263 259 255 257 253 250 246 239 233 231
230 187 170 184 175 192 207 204 227 222 209 269 177 133 116 159 193 172 145 132 134 139 133 126 119 115 108 107 107 104 110 110 105 104 104 104 100 99 99 96 95 90 87 85 80 77 75 71 71 69 67 64 57 57 56 54 55 54 51 44 38 33 29 26 23 23 20 16 12 6 0 350 337 325 317 315 308 303 304 304 298 293 290 288 282 268 257 258 261 259 255 250 250 253 251 244 237
228 203 208 170 147 182 197 202 219 183 161 218 204 164 125 186 207 174 164 153 147 143 135 127 121 121 116 114 114 108 107 106 104 103 99 100 100 101 101 98 96 91 88 88 82 76 71 64 66 67 63 58 51 46 43 43 43 46 46 39 33 27 22 17 13 16 17 13 11 8 4 355 346 338 327 319 313 308 305 306 303 298 295 292 286 276 262 259 262 257 251 250 253 256 255 253 247
226 227 227 207 128 168 209 215 175 158 223 221 209 185 137 152 222 196 187 164 151 143 134 135 128 124 123 117 118 114 109 107 106 105 101 100 101 103 100 94 93 91 87 85 78 71 67 65 70 69 61 55 50 45 41 41 39 41 43 39 34 28 20 15 14 16 14 11 9 5 1 355 348 346 338 325 318 314 310 306 302 299 298 292 285 282 273 265 265 260 256 255 253 252 254 256 252
222 223 199 194 320 35 239 257 143 164 237 225 205 188 145 153 214 204 192 166 155 152 146 146 139 130 128 120 119 118 112 111 107 106 106 102 100 101 98 92 91 90 84 80 77 72 72 73 73 67 57 50 46 46 46 44 41 41 41 38 36 31 25 22 22 20 14 12 10 4 0 358 352 352 349 339 327 318 310 306 304 298 296 295 291 290 283 272 268 265 266 266 262 260 259 259 256
217 214 172 164 181 177 204 237 204 193 239 228 190 182 160 166 223 198 179 175 166 158 145 143 140 134 130 126 123 118 114 113 110 109 110 104 103 105 103 99 95 91 89 90 84 77 78 77 69 61 59 54 47 53 56 48 42 41 41 40 36 33 34 34 30 23 17 17 18 12 8 6 3 359 355 347 339 329 318 313 309 298 291 294 295 294 292 286 278 269 264 263 264 266 266 263 259
207 209 180 168 160 164 191 208 214 219 239 225 173 176 194 175 326 235 169 166 152 130 125 128 132 130 128 126 121 116 113 113 113 116 113 107 108 108 104 103 102 98 102 108 96 86 85 76 62 66 80 82 72 67 60 50 48 48 49 48 40 36 38 36 29 23 21 22 20 16 14 13 10 6 1 354 347 341 333 325 315 303 294 292 291 291 294 293 288 280 271 265 262 263 264 263 261
209 204 149 157 162 161 193 192 191 211 213 13 137 172 229 146 43 65 134 128 103 108 116 118 121 122 122 120 117 116 115 115 117 119 116 115 114 108 104 104 106 106 103 105 105 99 91 77 72 87 100 99 86 77 71 67 65 60 58 56 46 41 39 34 25 18 18 19 16 16 15 14 11 8 6 1 355 351 347 340 325 313 309 303 295 292 292 290 288 284 280 275 270 267 264 261 260
207 174 128 180 181 148 178 186 171 162 132 32 23 92 10 79 78 85 107 104 101 113 116 117 118 118 120 119 119 122 121 120 122 119 116 115 114 111 108 104 108 116 108 104 111 105 96 92 94 101 107 105 92 83 81 79 75 67 64 63 54 48 46 41 32 21 16 14 11 13 14 13 11 8 6 3 359 356 353 348 339 329 324 317 307 300 297 294 290 286 283 280 277 275 269 262 259
177 178 180 195 170 135 137 186 169 114 116 79 299 118 109 113 65 89 112 108 108 116 114 117 120 120 121 120 123 125 122 121 119 118 117 115 117 114 105 99 106 124 118 113 117 108 99 102 106 108 110 106 94 82 77 77 73 65 64 65 59 54 52 48 41 32 25 21 15 12 11 10 9 7 5 3 2 360 356 350 344 338 334 329 320 310 304 301 297 291 286 282 280 278 274 267 264
156 198 193 149 127 127 107 145 199 88 117 198 232 164 165 161 155 131 123 115 120 126 122 124 125 125 123 119 123 121 117 117 111 111 114 115 118 112 106 106 108 113 112 115 117 108 99 96 92 101 111 106 94 78 73 74 71 67 66 67 63 59 55 52 45 37 32 31 27 19 13 9 6 4 3 3 4 4 3 358 352 347 342 337 332 323 312 304 300 295 289 285 284 281 274 268 267
189 186 162 132 152 191 146 164 191 134 124 139 168 175 186 174 166 155 141 136 141 139 135 136 135 133 127 120 122 118 114 113 106 109 113 115 118 115 118 121 109 106 114 118 113 104 98 83 75 89 105 106 97 83 76 76 74 72 71 68 65 60 56 53 48 40 35 32 28 23 18 13 7 4 4 5 5 6 8 8 6 2 356 348 344 338 327 315 307 300 293 291 291 287 276 267 263
201 136 147 161 165 174 173 172 157 134 142 146 148 174 222 216 161 162 157 150 148 147 145 142 139 136 129 125 126 121 115 114 113 117 118 118 121 120 122 121 109 109 115 117 111 101 89 75 76 91 104 102 94 84 79 77 74 72 69 64 61 59 57 54 48 41 35 32 29 25 21 16 13 10 8 8 7 8 8 11 14 14 10 5 358 352 343 332 321 311 303 298 297 292 280 271 266
182 141 175 188 165 155 170 176 125 125 144 148 146 183 236 219 166 163 157 148 144 143 139 135 136 132 127 126 126 121 121 123 122 125 125 119 114 108 110 113 110 105 104 108 108 97 84 80 85 94 99 94 88 84 80 77 73 70 67 62 57 57 58 55 49 43 38 34 32 29 23 19 18 16 13 12 13 15 12 14 19 17 14 14 10 3 356 347 337 327 318 310 303 294 284 278 273
162 160 195 192 167 138 134 203 231 110 129 154 156 171 188 238 187 158 151 148 143 139 133 130 132 129 125 125 124 126 130 129 129 132 126 114 104 101 107 111 106 98 97 103 102 91 85 88 91 92 90 87 86 85 80 75 72 70 67 63 58 56 56 54 50 45 40 37 33 30 25 23 22 19 19 20 23 23 20 22 25 16 9 12 12 8 3 355 349 344 335 325 312 298 290 288 282
Height
781 782 782 782 780 780 781 781 795 798 800 812 806 800 789 776 774 772 771 766 764 760 751 750 747 745 750 758 767 771 776 778 781 788 791 785 780 782 783 784 786 786 788 791 793 796 797 799 801 802 804 804 805 806 807 807 808 808 809 809 809 810 810 810 810 812 812 813 815 815 817 817 817 818 818 818 819 819 820 821 822 822 823 823 823 823 824 824 825 825 825 825 825 825 825 825 825
781 782 781 782 779 782 785 783 802 809 808 816 805 797 784 774 777 773 769 765 764 759 751 750 750 750 752 755 757 765 778 778 773 778 782 781 782 784 784 784 785 786 789 792 794 797 798 800 801 803 804 805 806 806 807 808 809 809 810 810 811 811 812 812 812 813 814 814 815 816 817 818 818 819 819 820 820 821 821 822 822 823 823 824 824 824 824 825 825 826 826 826 826 827 827 827 826
782 782 781 782 780 782 786 788 805 813 814 817 805 790 780 780 779 769 763 761 759 753 751 751 753 756 755 759 759 768 784 780 773 776 780 781 782 785 786 785 787 788 790 792 795 797 799 800 802 803 804 805 806 807 808 808 810 811 812 812 813 813 814 814 814 814 815 816 816 817 818 819 820 820 821 821 821 822 822 823 824 824 824 825 825 825 825 826 826 826 827 827 827 827 828 828 828
782 782 781 782 784 786 790 797 803 809 814 813 802 785 778 780 774 765 758 757 754 749 751 753 759 757 755 767 766 770 782 780 775 775 779 781 780 784 786 787 788 789 791 793 795 797 799 800 802 803 804 806 806 808 809 810 811 812 813 814 815 815 815 816 816 817 817 818 818 819 820 821 821 821 822 822 823 823 823 824 825 825 825 825 825 826 826 826 826 827 827 827 828 828 828 828 829
782 782 782 782 788 790 793 800 801 804 807 803 796 782 775 772 768 763 754 754 752 750 751 753 764 760 756 765 767 773 779 776 777 774 776 781 781 783 786 788 789 789 792 794 796 798 800 801 802 803 804 806 807 809 810 812 813 814 815 815 816 816 817 818 819 819 819 820 820 821 822 822 823 823 823 823 824 824 825 825 826 826 826 826 826 826 826 827 827 827 827 827 828 828 828 829 829
782 782 782 783 787 787 796 804 803 803 795 790 790 779 772 766 764 762 754 754 752 750 750 752 762 762 766 766 764 771 771 771 775 774 775 780 783 784 786 788 789 791 793 795 797 798 800 801 802 803 805 807 808 810 812 813 814 815 816 816 817 818 818 819 820 821 821 821 822 822 823 824 824 825 825 825 825 826 826 826 827 827 827 827 827 827 827 827 827 827 827 827 828 828 829 830 830
782 783 784 787 788 788 802 808 804 803 788 781 783 776 772 764 761 761 757 760 759 754 751 754 754 761 775 771 770 771 767 768 770 774 776 779 784 784 786 788 790 792 794 796 797 799 800 801 802 804 805 808 810 811 813 814 816 816 817 817 818 819 819 820 820 821 822 823 823 824 824 825 826 826 826 826 827 827 827 827 827 827 828 828 828 828 828 828 827 827 827 827 828 828 830 830 831
782 785 786 791 795 795 804 804 800 799 784 776 775 772 770 763 761 763 759 760 763 758 755 757 749 765 782 773 779 777 768 771 770 776 778 780 784 785 787 788 791 793 795 797 798 799 800 801 803 804 806 808 810 812 814 815 816 817 818 818 818 819 819 820 821 821 822 823 824 825 825 826 827 827 827 828 828 828 828 828 828 828 829 829 829 829 828 828 828 828 827 828 828 829 830 831 832
782 786 788 793 800 801 804 802 797 790 780 775 773 770 766 761 760 763 760 757 760 759 760 757 747 768 785 777 784 778 772 776 773 778 780 782 784 785 788 789 790 792 795 797 798 799 800 802 803 805 806 808 810 812 813 815 816 817 818 818 818 819 819 820 820 821 823 824 825 825 826 826 827 827 828 828 828 828 829 829 829 829 829 830 830 829 829 829 829 828 828 829 829 830 831 832 833
784 786 789 795 801 806 807 803 795 786 778 773 771 767 764 759 758 760 758 757 758 761 763 754 751 769 781 782 786 779 777 778 776 781 782 784 785 786 789 789 790 791 794 796 797 798 799 802 803 805 807 808 810 812 813 815 816 817 818 818 818 818 819 820 821 822 823 825 825 826 826 826 827 827 828 828 828 829 829 829 829 830 830 830 831 831 830 830 830 829 829 830 830 831 832 833 834
789 788 788 798 805 809 807 802 796 786 777 772 767 760 759 755 756 758 755 758 757 761 762 754 763 772 776 785 786 781 779 780 779 782 783 785 787 788 789 790 792 791 793 794 796 798 799 802 803 805 807 809 810 812 814 815 816 817 817 818 818 819 820 821 822 824 824 825 826 826 826 826 827 827 827 828 828 828 829 829 830 830 830 831 831 831 831 832 831 831 831 831 831 832 833 834 835
793 791 790 802 805 803 800 800 794 785 777 773 766 754 751 750 754 757 752 759 757 759 758 753 766 769 779 790 785 782 780 782 782 782 785 786 787 788 790 791 792 793 793 795 797 798 800 802 804 806 807 809 811 812 814 815 816 816 817 818 819 820 821 822 823 824 825 826 826 826 826 826 826 827 827 828 828 828 829 829 830 830 831 831 832 832 832 832 833 832 833 833 833 833 834 835 835
792 792 793 801 799 796 795 796 790 785 780 770 761 748 745 747 750 748 746 756 757 760 756 750 757 762 780 790 783 783 782 783 783 783 785 786 788 789 791 792 792 794 794 796 798 800 802 803 805 806 808 810 812 813 814 815 816 816 818 818 819 821 822 823 823 824 825 825 825 825 825 826 827 827 828 828 829 829 829 829 829 830 831 831 832 833 833 833 834 834 834 834 834 834 835 836 836
788 788 792 798 794 792 792 792 787 788 782 763 754 745 742 742 740 738 742 758 760 756 753 747 750 761 780 787 787 786 783 785 783 785 785 787 790 789 791 792 793 795 797 799 800 802 803 804 806 807 809 811 813 814 815 816 816 817 818 819 820 821 822 823 823 823 824 824 825 825 826 826 827 828 829 829 830 830 829 830 829 830 830 831 832 833 833 833 834 834 835 835 835 836 836 836 837
784 784 788 795 794 792 789 788 785 788 779 759 751 744 740 737 734 739 741 754 760 748 748 751 748 761 776 778 784 783 781 784 783 785 786 788 790 790 792 793 795 797 799 801 802 803 803 805 807 808 811 812 814 814 815 816 817 818 818 819 820 821 822 822 823 823 823 824 824 825 826 827 828 829 829 830 830 830 830 830 830 830 830 831 832 832 833 833 834 835 835 836 836 836 837 837 837
779 782 789 795 795 795 789 784 783 785 774 756 748 741 742 741 736 743 738 739 752 749 750 756 748 755 767 767 771 775 779 782 782 785 786 789 790 791 793 794 797 799 801 802 802 804 804 806 808 810 812 813 814 815 816 817 817 818 819 820 821 822 822 823 823 823 823 823 824 825 826 828 828 828 828 829 829 829 829 830 830 830 830 831 832 832 833 833 834 835 835 836 836 837 837 837 837
778 784 793 797 795 794 787 780 780 778 767 754 747 742 746 749 743 742 736 733 748 754 754 757 751 751 762 765 766 771 777 780 782 785 787 790 791 792 795 796 798 799 802 802 803 805 806 808 809 811 812 813 815 815 817 817 818 819 819 820 821 822 823 823 823 823 823 824 824 825 827 827 828 827 827 827 827 828 828 829 829 830 830 831 832 832 832 833 833 834 835 835 836 837 838 838 838
781 787 794 797 793 787 779 775 772 768 765 757 749 746 747 751 750 743 743 746 750 758 761 760 758 757 762 767 769 773 777 779 782 785 787 790 790 792 794 797 798 799 802 803 805 805 807 809 810 812 812 814 815 815 817 817 818 819 820 821 821 822 822 823 823 824 824 824 825 825 826 827 827 826 826 826 826 826 827 828 829 829 830 830 832 832 832 833 833 833 834 835 836 837 838 838 838
781 786 791 791 783 776 769 768 766 764 765 759 752 748 745 748 749 744 752 760 755 762 771 767 767 768 769 771 774 776 777 780 782 784 787 788 789 791 793 796 798 800 802 803 805 806 808 809 810 811 812 814 814 816 817 817 818 818 819 820 821 822 822 823 823 824 824 824 824 824 825 826 826 825 825 826 826 826 826 827 828 829 830 830 831 832 832 833 833 833 834 835 836 837 838 838 838
777 781 789 782 773 770 766 765 763 761 761 760 755 747 744 745 745 746 755 763 760 764 771 770 774 775 774 775 776 777 778 781 783 785 787 788 790 791 793 795 797 800 802 803 805 807 808 809 811 812 812 814 815 816 817 817 817 818 819 820 820 821 822 823 824 823 823 823 823 824 825 825 825 825 825 825 825 826 826 826 827 828 829 829 830 831 832 833 833 833 834 835 835 837 838 838 838
774 776 782 774 769 769 764 763 761 758 757 758 756 748 746 743 743 749 755 766 770 766 761 761 768 771 773 776 776 778 779 781 784 786 787 789 791 792 794 795 798 800 801 804 806 807 809 810 811 812 813 814 815 816 817 817 817 817 818 819 820 821 823 823 823 822 822 822 823 824 824 824 825 826 825 825 825 826 826 826 826 827 828 829 829 830 831 832 833 833 834 835 836 837 837 838 838
774 772 771 768 768 768 762 759 759 756 754 756 754 751 749 744 747 753 754 764 769 761 755 753 757 763 768 772 775 778 779 782 784 786 787 790 792 793 795 796 799 801 802 804 806 808 809 810 811 812 814 815 816 817 817 817 817 818 818 819 820 821 822 822 822 822 822 822 823 824 825 825 825 825 826 825 825 825 826 826 826 826 827 828 829 829 830 832 833 833 834 835 835 836 837 837 838
776 771 765 765 764 765 760 757 756 755 756 757 754 750 748 748 754 754 751 757 757 753 754 754 756 760 764 768 773 777 780 782 783 785 787 789 791 792 795 797 800 801 803 805 806 808 809 810 812 813 814 815 817 818 818 818 818 818 819 820 820 821 822 822 822 822 822 823 824 825 825 825 826 826 826 825 825 825 826 826 826 826 826 827 828 829 830 831 832 833 833 834 835 836 836 837 837
775 772 765 763 761 762 759 756 756 754 756 755 749 748 749 752 757 755 754 755 752 754 757 758 760 762 765 769 773 777 779 781 782 785 787 789 791 792 794 798 800 802 804 806 807 808 809 811 813 814 815 816 817 818 818 818 818 819 819 820 820 821 821 822 822 822 822 823 824 825 825 825 826 826 826 825 825 825 826 826 825 825 825 827 828 828 829 830 831 832 833 833 834 835 836 836 836
772 770 764 761 759 758 756 756 756 754 751 748 747 750 753 752 754 758 759 757 754 755 759 762 764 766 769 772 774 777 779 781 783 786 789 791 791 793 796 799 802 803 805 806 808 808 811 812 814 815 816 816 817 818 819 819 819 819 820 820 820 821 822 822 822 822 822 823 823 824 824 825 825 826 825 825 825 825 825 825 825 825 824 825 826 827 828 829 830 832 832 832 833 834 835 836 836
767 764 762 760 757 754 754 755 756 754 748 745 749 753 756 751 752 764 763 758 757 757 762 765 767 770 772 774 775 777 779 781 784 787 790 791 793 795 798 801 803 804 806 807 808 810 812 814 815 816 816 817 818 818 819 819 818 819 820 820 820 821 822 822 822 822 822 822 823 823 824 824 824 825 825 825 825 825 825 825 825 824 824 824 825 826 827 828 830 831 832 832 832 833 834 835 835
759 759 759 757 756 752 753 755 754 755 750 746 750 753 756 751 755 773 769 758 759 761 766 768 770 773 774 776 777 778 780 782 785 787 790 793 794 796 799 803 804 805 807 807 809 811 813 814 815 816 817 818 818 819 819 819 818 819 820 820 820 821 822 822 822 822 822 822 822 823 824 824 824 825 825 825 825 825 825 824 824 824 824 824 824 825 826 827 828 830 831 831 831 832 833 834 835
757 758 759 756 755 754 753 755 753 755 753 748 748 751 754 754 760 771 768 761 760 762 768 769 771 775 776 778 779 780 782 784 786 788 791 794 796 798 800 803 805 806 807 808 810 811 813 814 816 817 818 819 819 819 819 819 819 819 820 820 820 822 823 823 822 822 821 822 823 823 823 823 824 824 824 824 824 825 824 824 824 824 824 824 824 825 825 826 827 828 829 830 831 831 832 832 833
757 757 763 760 756 757 754 753 752 753 754 746 748 759 759 759 765 764 762 763 762 764 769 771 773 775 777 780 782 784 785 787 790 793 796 799 800 802 803 803 803 804 806 807 809 811 813 814 815 817 818 819 819 819 820 819 819 819 820 820 820 821 822 822 822 822 822 822 822 822 823 822 823 823 823 824 824 824 824 824 824 823 823 824 824 824 825 826 826 827 827 828 829 830 830 830 830
757 757 762 763 763 762 753 751 753 752 753 744 751 773 771 763 766 761 759 763 765 769 771 772 774 775 778 780 783 786 789 792 794 797 798 798 798 798 799 800 800 800 803 805 808 810 812 813 815 816 818 819 819 820 820 819 819 820 820 820 820 821 821 822 822 822 822 822 822 822 822 822 822 822 822 822 822 823 823 823 823 823 823 823 823 823 824 825 826 826 826 827 828 828 828 828 828
760 761 762 765 772 767 751 749 753 753 752 743 753 776 772 765 766 761 760 761 765 773 774 774 775 776 779 781 784 788 791 795 795 795 796 795 796 795 796 799 799 799 801 803 806 809 811 812 814 815 817 819 819 820 820 819 820 820 821 820 820 821 821 822 822 822 822 822 822 822 822 821 821 821 822 822 822 822 822 822 822 822 822 822 822 822 823 824 825 825 825 825 826 827 827 826 827
762 770 772 769 772 767 752 747 750 753 752 745 755 773 770 765 766 760 759 761 766 773 777 776 776 778 780 782 785 789 792 795 795 796 798 798 799 798 799 801 802 803 803 804 806 808 810 811 813 815 817 818 819 820 820 819 820 821 821 821 821 821 822 822 822 822 822 822 821 821 821 821 821 821 821 821 821 821 821 821 822 822 822 821 821 822 822 823 824 824 824 825 825 826 826 825 825
766 773 778 771 770 769 759 750 746 748 751 750 755 767 768 765 764 760 758 762 767 774 778 779 778 779 781 784 787 790 794 796 797 799 800 799 799 798 800 802 803 804 805 806 806 807 809 811 813 815 817 818 819 819 820 819 820 821 821 821 822 822 822 822 822 822 821 821 821 821 821 821 821 821 821 821 821 821 821 821 821 821 821 821 820 820 820 821 822 823 823 824 824 825 825 824 824
775 773 775 770 766 768 765 756 747 746 751 755 755 760 763 762 761 760 759 761 768 775 779 780 779 780 782 785 789 791 794 797 799 800 800 800 799 799 801 802 803 804 805 807 807 808 809 811 813 815 817 818 819 819 819 820 820 821 822 822 822 822 822 822 822 821 821 821 821 821 821 821 821 821 821 821 820 820 820 820 820 820 820 819 819 819 818 819 820 822 822 823 823 823 823 823 822
780 776 774 772 766 767 767 759 750 748 753 756 759 761 761 760 760 760 759 761 768 774 777 779 779 781 783 786 790 793 795 798 799 800 800 800 800 801 802 803 805 806 807 807 809 809 810 811 813 814 817 818 819 819 820 820 820 821 822 822 822 822 821 821 821 821 821 821 820 820 821 820 820 820 820 820 820 820 819 819 819 819 819 819 818 818 818 818 819 820 821 821 821 821 821 822 821
772 771 770 771 768 767 764 757 748 748 755 758 760 761 760 761 763 763 763 763 769 775 777 779 781 782 785 788 791 794 797 799 800 800 800 801 801 803 804 805 806 807 808 809 810 811 811 812 812 814 816 817 818 819 820 820 821 822 822 823 822 821 821 821 821 821 820 820 820 820 820 820 820 819 820 819 819 819 819 818 818 818 818 818 817 817 817 817 818 818 819 819 819 819 820 820 820
763 766 768 766 767 767 759 754 747 745 756 759 757 759 759 762 764 765 767 770 774 778 780 781 782 784 786 789 793 795 797 798 799 800 801 802 803 804 805 806 807 808 809 810 811 811 812 812 813 814 816 817 819 819 820 821 821 821 822 822 822 822 822 821 821 821 820 820 820 820 819 819 819 818 819 818 818 818 817 817 817 816 817 817 816 816 816 816 816 817 817 817 817 817 818 819 819
762 765 768 767 767 764 754 751 747 744 754 757 756 761 761 761 764 765 769 775 778 777 779 781 782 786 789 791 794 795 796 797 799 800 802 803 805 806 807 808 809 810 810 812 812 811 811 812 813 815 816 817 819 820 820 820 821 821 821 822 822 822 821 821 821 820 820 819 819 819 819 818 818 818 818 817 817 817 816 816 815 815 815 815 815 814 814 814 814 815 815 815 814 815 815 817 818
763 765 769 771 766 760 755 751 746 746 753 757 757 762 764 764 765 765 769 776 779 776 776 777 780 785 790 791 792 794 796 798 799 800 802 804 806 807 808 809 810 811 812 813 813 811 811 812 813 815 816 817 818 819 820 820 821 821 821 821 821 821 821 820 820 819 819 818 818 818 818 818 818 817 817 817 816 816 815 814 813 813 813 813 813 813 813 812 812 812 813 813 813 813 813 814 815
763 766 770 771 765 763 764 756 749 748 749 753 757 764 771 773 770 771 774 776 780 780 779 780 782 785 789 790 792 794 796 798 800 801 803 805 807 808 809 810 811 812 813 814 813 813 812 813 814 815 816 817 818 819 820 821 821 821 821 821 821 821 820 820 819 818 818 817 817 818 817 817 816 816 816 816 815 814 813 813 812 812 812 812 812 811 811 810 810 811 811 812 812 812 811 811 811
762 763 767 768 762 762 763 756 751 750 747 749 758 772 784 783 779 782 782 780 784 785 785 787 788 788 789 791 793 795 796 797 800 801 803 805 807 809 810 811 812 813 814 814 814 814 814 814 815 816 817 817 818 819 820 820 821 821 821 821 821 820 820 819 818 817 817 817 816 816 816 815 815 815 815 814 814 813 812 812 811 810 810 811 810 810 810 809 809 810 809 809 809 809 809 809 809
764 757 757 759 759 760 760 756 757 764 764 754 756 782 801 794 787 789 787 787 791 790 789 791 791 791 791 793 795 797 797 797 800 802 803 805 807 810 811 812 813 814 814 815 815 815 815 815 816 817 818 818 819 819 819 820 820 820 820 820 820 820 819 818 817 816 816 815 815 814 814 814 813 813 813 813 813 812 811 810 810 809 809 809 809 808 808 808 808 808 808 807 806 806 807 807 806
764 750 747 752 756 760 760 758 764 774 771 753 749 779 808 805 795 793 788 791 795 793 793 793 792 793 793 795 797 798 799 799 801 803 804 806 808 809 812 813 813 814 816 815 815 815 816 817 817 818 819 819 819 819 819 819 820 820 820 820 820 819 818 817 816 816 815 814 813 812 812 812 812 812 812 812 812 811 810 809 809 808 808 807 807 806 806 806 806 806 806 805 805 805 805 805 804
756 742 742 751 755 760 760 759 766 768 761 755 751 768 800 808 798 793 789 792 797 795 795 795 793 795 796 797 800 800 800 801 802 805 806 808 808 809 812 814 814 816 817 816 816 817 818 818 819 819 819 820 820 820 820 820 820 820 819 819 819 818 818 817 816 815 814 813 812 811 811 811 811 811 811 811 811 810 809 808 808 806 805 804 803 803 803 802 802 803 804 803 803 803 803 802 802
745 737 742 748 751 756 756 758 764 762 763 772 764 764 793 809 799 793 792 792 797 797 794 795 794 796 798 800 802 802 802 802 803 806 808 809 810 810 813 815 816 817 817 818 819 819 820 820 820 820 820 820 821 821 821 821 821 820 819 818 818 818 817 817 816 814 813 812 811 811 810 811 811 810 810 810 810 809 808 807 807 805 804 802 800 800 800 800 800 801 801 801 801 801 801 801 801
738 737 742 744 748 751 751 757 761 763 772 780 769 761 787 812 805 797 797 793 794 795 794 795 796 797 799 801 802 803 804 804 805 808 810 811 812 813 815 816 817 818 819 820 820 821 821 821 821 821 821 821 821 822 822 822 822 821 820 819 818 818 817 816 815 814 813 812 811 811 811 810 810 810 809 809 808 808 807 806 805 804 802 801 799 798 798 798 799 799 799 798 799 799 799 800 800
736 738 744 748 752 750 750 754 757 769 779 774 765 757 774 807 809 794 790 785 783 789 793 796 797 798 800 801 803 804 805 806 807 810 812 813 814 815 816 817 818 819 820 820 821 821 822 822 821 821 822 822 822 822 822 822 822 821 820 820 819 818 817 816 816 815 814 813 812 811 811 811 810 810 808 808 807 807 806 805 804 803 801 800 798 797 797 797 797 797 797 797 797 798 798 798 798
737 741 747 756 762 759 759 759 760 778 780 762 758 756 762 790 799 786 781 777 775 779 786 792 796 799 802 802 803 804 806 808 809 811 813 814 816 817 817 819 820 820 821 822 822 823 823 823 823 823 823 824 823 823 823 823 822 822 821 821 820 819 818 818 817 817 816 815 813 813 812 811 810 809 808 807 806 805 804 804 803 801 800 799 797 796 796 795 795 795 795 795 796 795 795 795 796
740 745 751 764 773 774 777 774 770 775 769 753 754 757 762 781 787 781 779 778 776 777 779 786 792 797 801 803 804 805 806 809 811 813 814 815 817 819 818 819 821 822 823 824 824 824 824 824 824 825 825 826 825 825 824 823 822 822 822 821 820 820 819 819 819 819 818 816 815 814 813 812 810 809 808 807 805 804 803 803 802 800 799 798 796 795 794 794 793 793 793 793 793 793 793 793 793
737 742 751 764 773 780 786 781 774 769 760 753 751 754 770 787 786 780 779 779 781 782 783 787 791 795 799 802 804 806 808 810 812 814 815 817 819 820 819 819 822 824 825 826 825 825 825 826 826 826 827 827 827 826 825 824 823 823 822 822 821 821 820 820 820 819 818 817 816 815 813 812 810 809 808 806 805 803 802 801 800 799 797 796 796 795 794 793 793 792 792 792 791 791 791 791 791
731 731 742 756 758 764 774 772 769 766 762 761 759 764 782 792 787 781 780 782 785 788 790 792 794 796 798 802 805 807 810 812 814 815 816 818 819 820 820 820 823 826 827 827 826 827 826 827 828 828 828 829 828 828 827 826 825 824 823 823 822 822 821 820 820 819 818 817 816 815 813 812 810 809 807 805 804 803 802 801 799 798 797 796 795 794 793 792 791 791 790 790 789 789 789 788 788
729 726 738 749 742 741 755 760 757 755 760 774 781 785 792 791 787 785 783 787 791 792 795 796 798 799 800 803 806 808 811 813 815 816 817 818 819 820 820 821 824 827 828 828 827 828 828 828 829 829 829 829 829 828 827 826 826 825 824 823 823 822 821 821 820 819 818 817 816 814 812 811 809 808 806 805 804 802 801 800 799 797 796 795 794 792 791 790 790 789 788 788 787 787 787 786 786
727 730 735 735 726 728 744 759 759 751 763 789 796 794 795 792 791 791 787 792 795 796 798 799 800 801 803 806 808 809 811 813 815 816 817 819 819 821 821 822 825 827 828 829 829 829 829 829 830 830 830 829 829 829 828 827 826 825 824 824 823 822 822 821 820 819 818 817 815 814 812 810 809 808 806 805 803 802 801 800 798 797 796 794 793 791 790 789 788 787 786 786 785 784 784 783 783
722 730 726 721 725 728 734 753 764 758 771 797 798 793 793 791 793 794 791 795 798 798 799 800 801 803 804 807 809 810 811 812 814 816 817 820 820 820 822 823 826 829 829 830 830 830 830 830 830 830 829 829 829 829 828 828 827 826 825 824 824 823 822 821 820 819 818 816 815 813 812 810 809 808 807 805 804 802 800 799 798 796 795 794 792 790 789 788 787 786 784 783 782 781 780 779 778
709 714 712 719 736 741 738 749 761 766 785 801 796 793 791 786 789 792 790 793 797 798 800 800 802 803 804 808 809 810 812 812 815 817 818 820 820 821 823 825 828 829 830 831 831 831 830 830 829 828 829 829 830 830 829 828 828 827 826 825 824 823 822 821 820 819 818 816 815 813 812 810 809 808 807 805 804 802 801 799 798 796 794 793 791 789 788 786 785 784 782 781 780 779 778 776 775
703 707 709 714 726 733 736 742 749 764 790 800 795 796 791 783 785 787 786 789 792 796 800 800 802 803 804 808 810 812 813 814 815 817 818 819 820 822 824 827 829 830 831 831 831 831 830 830 829 828 829 830 831 831 830 829 829 828 827 826 825 824 823 822 821 820 818 816 815 814 812 811 809 808 807 806 804 802 801 799 798 797 794 792 790 788 787 785 783 782 781 779 778 777 776 774 773
710 715 718 716 717 722 729 737 740 753 778 791 793 797 791 780 779 781 785 788 790 794 799 801 803 804 806 808 811 812 814 815 816 817 818 819 821 823 825 827 829 829 830 831 831 831 830 830 830 830 831 831 832 832 831 830 830 829 828 827 826 825 824 823 822 820 819 817 816 814 812 811 810 809 807 806 804 802 801 800 798 797 795 792 790 788 786 784 782 781 779 778 776 775 773 772 772
708 713 715 715 717 723 735 744 740 743 762 776 781 789 789 782 776 777 784 788 789 793 796 800 805 806 808 810 810 813 814 814 816 817 818 820 821 824 826 827 829 829 830 831 831 831 831 831 832 832 832 833 833 833 832 831 830 830 830 829 828 827 825 824 822 821 820 818 816 814 813 811 810 809 808 806 804 802 801 799 798 797 795 792 791 789 787 784 782 780 778 776 774 773 772 770 770